Lid_Strength_Index
1 1 1 0 -0 0 -0 -0 0 1 1 2 2 2 1 1 1 1 2 2 3 3 2 3 3 2 2 2 1 1 1 2 3 2 1 0 -0 -0 -1 -1 -1 -1 -1
1 1 1 1 1 1 1 1 2 2 2 3 2 2 2 2 2 2 3 3 4 3 3 3 3 2 1 1 1 1 1 1 2 3 1 2 1 -1 -1 -1 -1 -1 -2
2 2 1 1 1 1 2 2 2 3 4 3 2 3 3 2 3 3 4 4 4 4 4 3 3 2 2 1 1 1 2 2 2 2 2 1 1 0 0 -1 -1 -1 -1
2 2 2 1 1 2 3 3 3 3 4 4 3 2 2 3 3 4 5 4 4 4 3 2 2 1 1 1 1 1 1 1 1 2 2 2 1 0 0 1 1 -0 -0
3 2 2 2 3 3 3 4 5 4 3 3 3 3 2 3 5 5 4 4 4 3 2 2 1 1 1 1 1 1 1 1 2 2 2 2 2 2 2 1 1 1 -0
3 3 3 3 3 4 4 4 6 4 3 3 3 2 3 5 7 6 5 4 3 3 2 1 1 1 1 1 1 1 1 1 1 2 2 3 1 1 1 1 1 2 3
3 3 3 4 4 4 5 6 5 5 5 3 2 3 3 5 7 6 6 3 2 2 2 1 2 1 1 1 1 0 0 1 2 1 1 1 1 0 0 1 1 1 2
3 3 4 4 4 6 7 7 5 5 3 3 3 3 4 5 7 6 5 2 1 2 1 1 1 1 2 2 1 1 1 0 -0 1 -0 -0 -1 -1 -1 -0 0 0 1
4 4 4 4 6 7 7 5 5 4 4 4 4 4 4 4 7 6 3 2 2 2 1 2 2 1 4 4 1 2 1 1 0 1 2 2 3 3 2 0 1 2 3
3 4 4 6 7 7 6 5 4 4 4 4 5 4 5 4 7 6 4 1 2 2 1 1 3 3 4 4 1 1 2 2 1 0 -0 -0 -0 -1 1 -1 -0 2 2
3 4 6 7 7 5 5 5 5 5 4 5 5 5 4 4 3 6 5 1 2 2 2 1 1 4 5 5 4 1 3 3 1 1 1 1 1 0 0 -0 -1 -0 1
5 6 7 6 6 5 5 5 5 5 5 5 5 5 4 2 5 6 6 6 4 2 1 0 1 5 5 4 3 5 5 3 2 3 3 2 2 2 1 -0 -1 -2 -2
7 7 7 6 5 5 6 6 6 6 7 7 7 5 4 3 2 6 6 6 5 2 0 2 4 4 4 2 4 4 4 2 3 4 4 4 3 2 0 -0 -1 -1 -1
8 7 7 6 6 6 7 6 7 7 6 7 6 4 4 3 3 2 2 1 3 1 2 -0 2 3 5 4 2 2 2 3 3 4 4 3 2 2 2 1 1 0 1
8 7 7 7 7 8 6 6 6 5 5 4 4 4 4 4 3 4 4 2 1 2 2 -0 1 1 2 2 2 1 1 2 3 3 3 3 3 2 1 0 1 2 3
7 7 7 7 7 7 7 7 9 8 8 7 6 4 3 5 7 7 6 6 6 5 1 1 1 1 2 1 1 1 1 2 2 3 3 3 3 2 2 1 1 2 3
7 7 7 7 7 7 7 6 5 5 7 7 8 7 7 5 7 7 6 6 6 5 0 0 1 1 1 1 1 1 1 1 1 2 3 3 3 3 3 2 2 2 2
5 8 7 7 7 6 6 5 4 3 2 2 6 5 7 8 7 7 6 6 1 3 0 1 0 0 0 1 1 1 1 1 1 2 2 3 3 3 3 3 2 2 2
5 6 6 6 6 5 5 4 3 2 2 2 0 4 5 7 7 7 6 1 1 1 0 0 -0 -0 -0 0 0 0 -0 0 1 1 1 2 2 3 3 3 2 6 5
5 8 7 5 5 5 4 3 2 2 2 1 1 1 1 3 2 1 1 0 1 1 0 0 -0 -0 -0 -0 -0 -0 -0 0 0 0 1 1 2 2 2 3 2 3 2
5 6 8 5 5 4 3 2 2 2 2 2 2 1 6 1 2 1 1 1 0 0 0 0 0 -0 -1 -1 -1 -0 -0 -0 -0 0 1 1 1 2 2 2 2 2 2
5 4 5 4 4 3 2 2 2 2 2 2 1 2 9 2 1 1 1 1 0 -0 -0 -0 -1 -1 -1 -1 -1 -0 -0 0 -0 -0 0 1 1 2 2 2 2 2 2
4 4 4 4 4 5 2 2 2 2 2 2 1 1 1 1 0 0 -0 -0 -0 -0 -1 -1 -1 -1 -1 -1 -1 -1 -0 -0 -1 -1 -0 0 1 1 2 2 3 3 2
4 4 5 4 3 2 2 2 1 4 1 1 1 1 1 0 -0 -0 -0 -1 -0 -1 -1 -1 -1 -1 -1 -1 -1 -2 -1 -1 -1 -1 -1 0 1 3 2 2 4 3 2
4 4 4 3 2 2 2 1 1 1 1 1 1 0 0 -0 -0 -0 -1 -1 -1 -1 -1 -1 -1 -1 -1 -1 -1 -1 1 7 2 4 0 0 1 2 3 4 4 3 2
4 3 2 2 1 1 1 1 1 1 1 0 0 0 -0 0 -0 -0 -1 -1 -1 -1 -1 -1 -1 -1 -1 -1 -1 3 7 7 4 8 1 1 2 3 3 5 4 3 3